Kremmling, CO

5:05 AM MST on November 20, 2019 (GMT -0700)
Kremmling

Weather History for K20V - September, 2019

Change the Weather History Date:

Friday, September 13, 2019

  Actual Average Record
Temperature  
Mean Temperature 52 °F -  
Max Temperature 75 °F - 82 °F (2007)
Min Temperature 30 °F - 28 °F (2008)
Degree Days  
Heating Degree Days 12    
Month to date heating degree days 72  
Cooling Degree Days 0    
Month to date cooling degree days 4  
Growing Degree Days 2 (Base 50)    
Moisture  
Dew Point 30 °F    
Average Humidity 58    
Maximum Humidity 100    
Minimum Humidity 15    
Precipitation  
Precipitation 0.00 in - 0.38 in (2013)
Snow  
Snow 0.00 in - - ()
Snow Depth 0.00 in    
Sea Level Pressure  
Sea Level Pressure 30.44 in    
Wind  
Wind Speed 1 mph ()    
Max Wind Speed 15 mph    
Max Gust Speed 20 mph    
Visibility 10.0 miles    
Events      
T = Trace of Precipitation, MM = Missing Value Source: Averaged Metar Reports

Daily Weather History Graph

Daily Weather History Graph

Search for Another Location

Airport or City:

Astronomy

Sep. 13, 2019 Rise Set
Actual Time 6:44 AM MDT 7:17 PM MDT
Civil Twilight 6:17 AM MDT 7:44 PM MDT
Nautical Twilight 5:44 AM MDT 8:17 PM MDT
Astronomical Twilight 5:11 AM MDT 8:50 PM MDT
Moon 7:32 PM MDT (9/13) 6:03 AM MDT (9/13)
Length of Visible Light 13h 27m
Length of Day
12h 33m
Full, 100% of the Moon is Illuminated
Sep 13
Full
Sep 13
Full
Sep 21
Last Quarter
Sep 28
New
Oct 5
First Quarter

Hourly Weather History & Observations

Time (MDT) Temp. Windchill Dew Point Humidity Pressure Visibility Wind Dir Wind Speed Gust Speed Precip Events Conditions
12:06 AM 35.6 °F - 32.0 °F 87% 30.49 in 10.0 mi Calm Calm - N/A   Clear
12:30 AM 35.6 °F - 32.0 °F 87% 30.49 in 10.0 mi Calm Calm - N/A   Clear
12:48 AM 35.6 °F - 30.2 °F 81% 30.49 in 10.0 mi Calm Calm - N/A   Clear
1:06 AM 35.6 °F - 32.0 °F 87% 30.49 in 10.0 mi Calm Calm - N/A   Clear
1:30 AM 35.6 °F - 32.0 °F 87% 30.49 in 10.0 mi Calm Calm - N/A   Clear
1:48 AM 33.8 °F - 32.0 °F 93% 30.49 in 10.0 mi Calm Calm - N/A   Clear
2:06 AM 33.8 °F - 30.2 °F 87% 30.49 in 10.0 mi Calm Calm - N/A   Clear
2:30 AM 33.8 °F - 32.0 °F 93% 30.49 in 10.0 mi Calm Calm - N/A   Clear
2:48 AM 33.8 °F - 32.0 °F 93% 30.49 in 10.0 mi Calm Calm - N/A   Clear
3:06 AM 32.0 °F - 32.0 °F 100% 30.49 in 10.0 mi Calm Calm - N/A   Clear
3:30 AM 32.0 °F - 30.2 °F 93% 30.49 in 10.0 mi Calm Calm - N/A   Clear
3:48 AM 32.0 °F - 30.2 °F 93% 30.49 in 10.0 mi Calm Calm - N/A   Clear
4:06 AM 32.0 °F - 28.4 °F 87% 30.49 in 10.0 mi Calm Calm - N/A   Clear
4:30 AM 32.0 °F - 30.2 °F 93% 30.49 in 10.0 mi Calm Calm - N/A   Clear
4:48 AM 30.2 °F - 28.4 °F 93% 30.49 in 10.0 mi Calm Calm - N/A   Clear
5:06 AM 30.2 °F - 30.2 °F 100% 30.49 in 10.0 mi Calm Calm - N/A   Clear
5:30 AM 30.2 °F - 28.4 °F 93% 30.49 in 10.0 mi Calm Calm - N/A   Clear
5:48 AM 30.2 °F - 28.4 °F 93% 30.49 in 10.0 mi Calm Calm - N/A   Clear
6:10 AM 30.2 °F - 28.4 °F 93% 30.49 in 10.0 mi Calm Calm - N/A   Clear
6:28 AM 30.2 °F - 28.4 °F 93% 30.50 in 10.0 mi Calm Calm - N/A   Clear
6:46 AM 30.2 °F - 28.4 °F 93% 30.51 in 10.0 mi Calm Calm - N/A   Clear
7:06 AM 30.2 °F - 28.4 °F 93% 30.51 in 10.0 mi Calm Calm - N/A   Clear
7:30 AM 30.2 °F - 28.4 °F 93% 30.52 in 10.0 mi Calm Calm - N/A   Clear
7:48 AM 32.0 °F - 30.2 °F 93% 30.52 in 10.0 mi Calm Calm - N/A   Clear
8:06 AM 33.8 °F - 30.2 °F 87% 30.52 in 10.0 mi Calm Calm - N/A   Clear
8:30 AM 35.6 °F - 32.0 °F 87% 30.52 in 10.0 mi Calm Calm - N/A   Clear
8:48 AM 37.4 °F - 32.0 °F 81% 30.52 in 10.0 mi Calm Calm - N/A   Clear
9:06 AM 37.4 °F - 32.0 °F 81% 30.52 in 10.0 mi Calm Calm - N/A   Clear
9:30 AM 41.0 °F - 32.0 °F 70% 30.52 in 10.0 mi Calm Calm - N/A   Clear
9:48 AM 44.6 °F - 32.0 °F 61% 30.51 in 10.0 mi Calm Calm - N/A   Clear
10:06 AM 46.4 °F - 33.8 °F 62% 30.51 in 10.0 mi Calm Calm - N/A   Clear
10:30 AM 50.0 °F - 32.0 °F 50% 30.51 in 10.0 mi Calm Calm - N/A   Clear
10:48 AM 51.8 °F - 33.8 °F 50% 30.49 in 10.0 mi East 3.5 mph - N/A   Clear
11:06 AM 53.6 °F - 33.8 °F 47% 30.49 in 10.0 mi SSW 3.5 mph - N/A   Clear
11:30 AM 55.4 °F - 33.8 °F 44% 30.47 in 10.0 mi Calm Calm - N/A   Clear
11:48 AM 55.4 °F - 33.8 °F 44% 30.46 in 10.0 mi West 3.5 mph - N/A   Clear
12:06 PM 59.0 °F - 32.0 °F 36% 30.45 in 10.0 mi Calm Calm - N/A   Clear
12:30 PM 62.6 °F - 32.0 °F 32% 30.43 in 10.0 mi Calm Calm - N/A   Clear
12:47 PM 64.4 °F - 32.0 °F 30% 30.42 in 10.0 mi West 3.5 mph - N/A   Clear
1:06 PM 68.0 °F - 30.2 °F 24% 30.41 in 10.0 mi Calm Calm - N/A   Clear
1:29 PM 69.8 °F - 28.4 °F 21% 30.40 in 10.0 mi WNW 5.8 mph - N/A   Clear
1:47 PM 69.8 °F - 26.6 °F 20% 30.39 in 10.0 mi West 3.5 mph - N/A   Clear
2:06 PM 73.4 °F - 28.4 °F 19% 30.38 in 10.0 mi WSW 15.0 mph 19.6 mph N/A   Clear
2:30 PM 73.4 °F - 28.4 °F 19% 30.37 in 10.0 mi SW 11.5 mph 19.6 mph N/A   Clear
2:48 PM 73.4 °F - 26.6 °F 18% 30.36 in 10.0 mi WSW 9.2 mph - N/A   Clear
3:06 PM 73.4 °F - 26.6 °F 18% 30.36 in 10.0 mi SW 9.2 mph 18.4 mph N/A   Clear
3:30 PM 75.2 °F - 26.6 °F 17% 30.35 in 10.0 mi SW 10.4 mph 18.4 mph N/A   Clear
3:48 PM 75.2 °F - 26.6 °F 17% 30.34 in 10.0 mi WSW 9.2 mph - N/A   Clear
4:06 PM 75.2 °F - 26.6 °F 17% 30.34 in 10.0 mi SW 9.2 mph 16.1 mph N/A   Clear
4:30 PM 73.4 °F - 26.6 °F 18% 30.34 in 10.0 mi Calm Calm - N/A   Clear
4:48 PM 73.4 °F - 26.6 °F 18% 30.33 in 10.0 mi WSW 8.1 mph - N/A   Clear
5:06 PM 75.2 °F - 26.6 °F 17% 30.33 in 10.0 mi SW 8.1 mph - N/A   Clear
5:30 PM 73.4 °F - 26.6 °F 18% 30.33 in 10.0 mi WNW 3.5 mph - N/A   Clear
5:48 PM 73.4 °F - 23.0 °F 15% 30.33 in 10.0 mi WSW 4.6 mph - N/A   Clear
6:05 PM 73.4 °F - 32.0 °F 22% 30.33 in 10.0 mi NW 5.8 mph - N/A   Clear
6:29 PM 69.8 °F - 32.0 °F 25% 30.34 in 10.0 mi North 6.9 mph - N/A   Clear
6:47 PM 68.0 °F - 32.0 °F 26% 30.34 in 10.0 mi North 8.1 mph - N/A   Clear
7:06 PM 64.4 °F - 32.0 °F 30% 30.35 in 10.0 mi NNW 6.9 mph - N/A   Clear
7:29 PM 62.6 °F - 32.0 °F 32% 30.36 in 10.0 mi NNW 4.6 mph - N/A   Clear
7:47 PM 62.6 °F - 30.2 °F 30% 30.36 in 10.0 mi NW 4.6 mph - N/A   Clear
8:06 PM 59.0 °F - 32.0 °F 36% 30.37 in 10.0 mi Calm Calm - N/A   Clear
8:30 PM 55.4 °F - 32.0 °F 41% 30.38 in 10.0 mi SE 3.5 mph - N/A   Clear
8:47 PM 55.4 °F - 32.0 °F 41% 30.39 in 10.0 mi Calm Calm - N/A   Clear
9:06 PM 53.6 °F - 32.0 °F 44% 30.40 in 10.0 mi Calm Calm - N/A   Clear
9:30 PM 50.0 °F - 33.8 °F 54% 30.41 in 10.0 mi Calm Calm - N/A   Clear
9:48 PM 48.2 °F - 32.0 °F 54% 30.41 in 10.0 mi Calm Calm - N/A   Clear
10:06 PM 46.4 °F - 33.8 °F 62% 30.41 in 10.0 mi Calm Calm - N/A   Clear
10:30 PM 46.4 °F - 32.0 °F 57% 30.41 in 10.0 mi Calm Calm - N/A   Clear
10:47 PM 44.6 °F 43.1 °F 32.0 °F 61% 30.41 in 10.0 mi SE 3.5 mph - N/A   Clear
11:06 PM 44.6 °F - 32.0 °F 61% 30.41 in 10.0 mi Calm Calm - N/A   Clear
11:30 PM 42.8 °F - 32.0 °F 66% 30.41 in 10.0 mi Calm Calm - N/A   Clear
11:48 PM 42.8 °F 41.1 °F 32.0 °F 66% 30.41 in 10.0 mi ESE 3.5 mph - N/A   Clear